Lapse_Rate
5.4 5.3 5.3 5.3 5.3 5.3 5.3 5.4 5.6 5.7 5.8 6.0 5.8 5.7 5.8 5.8 5.9 6.1 6.3 6.4 6.5 6.5 6.4 6.5 6.4 6.1 5.9 6.2 5.7 5.4 6.0 6.0 5.7 5.4 6.6 7.2 6.8 6.5 6.2 5.7 5.6 5.6 5.7 5.9 5.3
5.5 5.5 5.4 5.4 5.3 5.3 5.3 5.3 5.4 5.6 5.8 6.0 6.0 5.9 5.8 5.9 6.0 6.1 6.1 6.3 6.5 6.5 6.4 6.3 6.2 5.9 6.0 6.1 6.0 5.8 5.8 6.5 5.9 5.9 6.5 6.7 6.5 6.5 6.1 6.2 5.8 5.7 5.8 5.7 5.5
5.8 5.7 5.7 5.6 5.6 5.5 5.5 5.4 5.5 5.5 5.7 5.8 5.9 6.0 5.9 5.9 6.1 6.2 6.2 6.3 6.5 6.3 6.4 6.6 5.6 6.0 6.1 6.1 6.3 6.0 5.7 6.2 6.0 6.3 6.3 6.4 6.3 6.4 6.2 6.3 6.3 5.8 5.9 5.6 5.4
6.0 5.9 5.9 5.8 5.8 5.8 5.7 5.6 5.6 5.6 5.7 5.9 5.9 6.0 6.0 6.0 6.0 6.2 6.2 6.2 6.3 6.3 6.4 6.2 5.8 6.0 6.4 6.6 6.5 5.3 5.7 6.3 6.0 5.8 6.1 6.0 6.5 7.1 7.1 5.7 6.1 5.6 5.5 5.4 5.5
6.2 6.1 6.1 6.0 6.0 6.0 5.9 5.9 5.9 5.9 6.0 6.1 6.1 6.0 6.0 6.0 6.0 6.1 6.2 6.3 6.2 6.4 6.4 6.3 6.3 6.3 6.2 6.4 6.5 5.5 5.6 6.4 5.9 6.1 6.2 5.9 6.1 6.7 6.1 6.2 6.1 5.8 5.2 5.3 5.5
6.2 6.2 6.1 6.0 6.0 6.0 6.1 6.1 6.1 6.2 6.2 6.2 6.3 6.2 6.2 6.1 6.0 6.1 6.1 6.3 6.3 6.3 6.3 6.6 6.7 6.4 6.4 6.2 5.3 5.5 5.1 5.7 5.6 5.5 6.4 5.9 5.8 5.7 6.2 6.3 6.0 5.7 5.5 5.6 5.4
6.2 6.2 6.2 6.1 6.0 6.0 6.0 6.0 6.1 6.1 6.1 6.2 6.2 6.1 6.2 5.7 5.7 6.0 6.5 6.4 6.3 6.4 6.6 6.4 6.5 7.7 6.7 5.9 6.3 6.0 5.4 6.1 6.5 6.0 6.3 6.3 6.1 6.5 6.3 5.8 5.8 5.6 5.9 5.9 5.6
6.1 6.3 6.3 6.3 6.2 6.1 6.0 6.0 5.9 6.0 6.1 6.0 6.1 6.0 6.2 5.8 5.9 6.2 6.7 6.5 6.4 6.2 6.6 6.6 7.0 7.3 6.7 6.7 6.7 6.8 6.6 6.0 6.0 5.7 5.9 5.8 5.5 6.4 6.2 6.1 5.5 5.9 6.0 5.9 5.6
6.2 6.3 6.4 6.4 6.3 6.3 6.1 6.1 6.0 6.0 6.0 6.0 6.1 6.2 6.1 6.0 6.0 6.1 6.0 6.5 6.5 6.4 6.7 7.1 7.4 6.6 6.7 6.7 7.1 6.4 6.9 6.5 5.9 6.4 6.0 6.2 6.4 6.3 6.4 6.1 5.7 5.9 6.2 6.2 5.5
6.2 6.3 6.3 6.3 6.3 6.3 6.2 6.1 5.9 5.9 6.1 6.0 6.1 6.2 6.1 6.3 6.1 6.4 6.0 6.2 6.3 6.4 6.7 7.3 7.4 6.8 7.1 8.0 6.9 7.6 7.2 6.1 6.4 6.5 6.3 6.3 6.8 6.8 6.5 6.0 6.0 6.2 5.7 6.1 6.1
6.1 6.2 6.3 6.2 6.3 6.2 6.1 6.0 6.1 6.0 6.0 6.0 6.1 6.5 6.2 6.4 6.2 6.2 6.1 6.2 6.4 6.7 6.9 7.5 8.1 7.3 7.7 7.9 7.4 6.7 6.9 6.5 6.7 7.3 6.7 6.5 6.3 6.8 6.9 6.3 6.2 6.6 6.3 5.8 5.9
6.2 6.1 6.2 6.1 6.2 6.3 6.2 6.1 5.9 5.8 5.8 6.0 6.2 6.5 6.4 6.4 6.3 6.2 6.1 6.3 6.6 6.9 7.1 7.7 8.0 8.1 8.3 8.6 8.2 7.1 6.6 7.4 6.5 6.8 6.4 6.4 6.2 6.7 6.3 6.3 6.6 6.3 6.3 6.0 6.0
6.5 6.3 6.2 6.2 6.2 6.3 6.4 6.2 6.1 6.0 5.8 6.9 6.4 6.5 6.4 6.6 6.4 6.4 6.4 6.5 6.7 7.0 7.3 7.9 8.6 9.2 8.7 8.7 8.4 7.1 7.6 7.6 7.7 6.9 6.8 6.7 6.9 6.8 6.5 6.5 6.5 6.3 6.0 6.1 6.1
6.6 6.5 6.2 6.2 6.4 6.3 6.1 6.1 6.0 5.7 5.6 6.9 7.0 6.6 6.8 6.7 6.7 6.8 6.7 6.6 6.9 7.1 7.8 8.2 9.2 9.4 9.5 9.4 8.9 7.8 8.4 7.9 7.8 7.6 6.9 6.9 6.8 7.4 6.9 6.5 6.5 6.0 6.0 6.6 7.0
6.5 6.5 6.5 6.3 6.3 6.4 6.2 5.8 5.7 5.8 5.8 7.2 7.2 7.3 7.1 6.9 7.2 7.1 7.0 6.9 7.0 7.3 8.1 8.7 9.2 9.7 9.4 9.2 9.5 9.6 9.5 9.3 8.3 8.0 7.7 6.6 7.4 7.2 6.7 6.5 6.2 6.0 5.3 6.1 6.8
6.4 6.5 6.4 6.2 6.2 5.9 6.0 5.8 5.9 6.1 6.7 7.2 7.4 7.5 7.4 7.3 7.3 7.4 7.2 7.1 7.1 7.2 7.4 8.1 9.1 9.5 9.6 8.9 9.3 9.6 9.2 9.3 9.3 8.6 7.8 8.1 7.8 7.3 7.2 7.4 7.0 6.7 6.5 6.1 6.3
6.5 6.5 6.3 6.2 6.2 6.3 5.8 6.1 6.1 6.5 8.1 8.7 8.7 7.5 7.8 7.7 7.6 7.4 7.5 7.4 7.2 7.3 7.7 8.2 8.2 8.9 9.4 9.2 9.4 9.2 9.2 8.9 7.5 6.9 6.5 8.3 6.6 7.1 7.7 7.6 7.8 7.8 6.6 6.1 6.3
6.5 6.5 6.3 6.2 6.1 6.2 6.2 5.9 6.2 7.4 8.6 9.6 9.1 8.9 8.2 8.2 7.9 7.9 8.0 7.8 7.6 7.6 7.5 7.5 9.1 9.1 9.2 9.1 9.1 9.3 9.4 9.3 8.5 7.8 7.6 8.2 7.4 7.5 7.5 7.2 7.0 6.6 6.5 6.4 6.0
6.4 6.5 6.4 6.2 6.1 6.0 6.1 5.6 6.3 7.5 8.2 8.7 9.4 9.4 9.1 8.9 9.0 9.3 8.2 8.1 8.2 8.1 8.2 8.5 8.2 9.4 9.4 9.2 9.1 9.1 9.3 9.2 9.2 9.0 8.7 8.7 7.9 7.8 7.2 7.2 7.3 6.5 6.9 6.7 6.3
6.2 6.1 6.3 6.2 6.0 5.9 6.0 5.9 6.5 7.1 7.2 7.7 8.5 8.9 9.3 9.5 9.6 9.6 9.4 9.0 9.0 8.9 8.4 9.1 9.1 9.4 9.4 9.4 9.1 9.2 9.4 9.4 9.3 8.0 6.9 7.5 6.8 8.1 7.9 8.0 7.9 6.7 6.6 6.6 6.3
6.0 5.5 5.8 5.6 5.7 5.8 5.9 6.3 6.5 7.0 7.5 7.8 8.1 8.4 8.4 8.8 9.5 9.7 9.8 9.7 9.6 9.6 9.5 9.2 9.5 9.4 9.7 9.8 9.5 9.6 9.1 9.2 9.1 9.2 7.5 6.7 7.4 8.3 8.5 8.1 8.0 7.1 7.1 7.0 6.5
6.0 5.5 5.4 5.3 5.5 5.6 6.3 6.6 6.9 7.2 7.6 7.7 7.5 7.8 8.1 8.5 8.6 9.2 9.3 9.8 9.6 9.9 9.8 9.6 9.2 9.3 9.5 9.8 9.6 9.6 9.2 9.5 9.2 9.1 8.9 8.5 7.5 8.2 8.1 8.1 7.9 7.8 7.4 7.2 6.7
5.9 5.8 5.4 5.6 5.6 5.7 6.0 6.3 6.9 7.2 7.6 7.7 7.6 7.6 8.0 8.2 8.3 8.5 9.0 9.4 9.3 9.7 9.2 9.4 9.3 9.1 9.2 9.2 9.0 9.3 9.4 9.6 9.5 9.4 9.5 8.4 8.1 8.2 8.3 7.7 8.0 7.6 7.3 7.0 6.8
5.6 5.5 5.4 5.2 5.4 5.3 5.6 6.0 6.2 7.0 7.0 7.5 7.7 7.8 7.7 7.8 8.2 8.5 8.5 8.9 9.3 9.6 9.8 9.5 9.4 9.3 9.0 9.2 9.3 9.5 9.3 8.7 8.9 8.5 9.2 8.0 8.2 8.1 8.2 8.0 7.6 7.4 7.3 6.8 6.6
5.5 4.8 5.2 5.6 5.6 5.4 5.4 5.4 5.7 6.5 6.8 7.4 7.3 7.6 7.8 7.8 7.9 8.1 8.2 8.6 8.9 9.4 9.5 9.5 9.0 9.1 9.1 9.0 8.9 8.5 8.4 8.6 8.9 8.6 8.4 9.1 9.0 8.3 8.1 8.2 7.4 6.7 6.4 6.2 6.4
5.2 5.1 5.0 5.1 5.2 5.2 5.3 5.6 5.7 6.0 6.2 6.7 7.2 7.3 7.6 7.9 7.9 7.9 8.2 8.1 8.3 8.9 8.8 9.2 9.1 8.9 8.8 9.1 9.1 8.7 8.4 8.7 9.1 8.7 9.1 8.9 8.4 8.2 7.9 7.2 6.9 6.7 6.9 6.4 6.5
4.4 4.2 4.4 5.1 4.8 4.6 5.1 5.2 5.5 5.7 6.0 6.2 6.2 6.4 7.0 7.3 7.0 7.2 7.4 7.2 7.9 7.7 8.3 8.5 8.6 8.7 8.6 8.7 9.0 8.2 8.3 8.4 8.6 8.5 8.8 8.8 9.4 8.7 8.0 7.4 6.6 6.2 6.5 6.8 6.7
Wind_Speed
14 13 12 11 12 11 11 11 12 12 12 12 12 13 14 17 20 3 6 8 7 12 4 5 9 12 13 3 10 9 0 5 9 3 6 9 10 10 18 21 18 9 20 21 19
16 15 13 12 12 12 12 11 12 12 12 12 11 12 13 15 4 9 13 11 9 15 4 8 10 7 4 2 5 4 2 5 10 17 8 6 1 7 7 18 22 23 22 23 22
17 16 15 13 13 12 12 12 13 13 12 11 11 10 11 10 4 7 17 17 13 12 5 10 14 4 4 2 4 5 2 6 10 22 8 9 5 13 18 17 19 24 23 21 18
19 18 16 14 14 13 13 13 14 13 11 10 9 10 10 4 1 3 9 12 10 7 6 7 9 6 4 4 3 0 5 5 3 7 3 3 6 7 6 17 20 17 24 20 17
21 20 18 16 15 14 14 13 14 14 11 9 8 8 5 3 9 8 10 9 7 5 7 10 8 3 8 11 16 13 8 3 11 7 13 11 12 10 8 23 20 17 27 20 14
21 20 19 18 17 16 15 15 14 13 10 8 7 7 3 5 4 16 11 8 8 8 8 13 10 10 16 15 6 10 10 2 4 9 1 8 12 19 16 19 19 16 17 12 13
23 21 20 19 18 18 17 16 15 12 9 6 5 4 5 12 8 14 11 8 7 9 12 14 12 8 5 9 6 14 3 4 5 7 7 10 8 10 13 14 17 16 14 12 9
23 23 22 21 21 19 18 17 16 11 7 5 4 4 7 9 20 12 12 10 11 10 10 10 4 15 8 6 6 7 2 2 6 6 5 9 5 13 8 7 3 13 16 14 13
24 23 23 22 21 20 20 20 15 8 6 6 4 3 8 2 7 8 8 10 10 9 10 12 2 7 5 4 0 1 1 4 4 5 5 10 5 21 13 6 5 3 10 16 7
24 24 23 22 21 21 25 13 6 2 4 6 7 5 7 13 9 11 8 8 7 8 9 10 3 5 2 3 2 2 2 6 1 8 7 4 7 6 11 15 16 13 8 14 14
25 25 24 23 20 19 12 2 0 2 6 10 10 8 11 16 6 6 8 6 8 5 8 11 5 10 13 9 10 6 7 9 7 8 6 6 6 9 10 7 5 8 9 11 12
26 26 25 23 20 17 4 5 11 5 8 20 19 17 21 5 5 7 9 7 7 8 11 7 11 12 18 13 19 15 8 8 11 12 5 7 4 7 4 4 10 9 12 6 4
27 27 27 26 27 4 7 12 11 18 7 17 15 15 13 7 7 9 11 9 6 9 10 9 13 8 15 9 19 16 18 6 10 9 8 7 8 4 3 4 4 6 9 10 11
28 27 26 30 1 3 5 10 17 13 5 7 10 12 7 7 8 10 11 9 7 9 11 9 13 12 5 16 20 17 24 18 23 10 5 13 3 7 1 3 10 10 10 9 13
31 28 23 10 8 4 7 10 11 5 4 11 9 3 10 8 5 7 12 8 12 10 3 11 10 6 8 9 7 4 17 10 19 10 12 7 4 3 5 7 6 10 16 15 15
34 27 22 2 4 10 12 14 3 1 6 8 8 7 8 8 13 11 11 7 8 9 10 10 11 7 5 8 9 6 4 4 3 5 2 6 5 4 7 9 7 7 16 17 17
37 30 7 6 4 11 8 4 1 4 7 10 10 13 10 9 11 10 9 8 6 4 8 11 13 10 6 6 9 4 2 3 4 4 1 6 2 10 9 13 15 16 10 9 16
41 32 9 7 11 10 2 1 5 10 10 1 9 13 9 10 12 11 9 7 9 10 9 7 8 13 9 9 5 6 3 4 3 4 5 1 6 6 16 20 10 11 11 11 11
36 1 3 5 15 6 1 4 5 5 7 12 10 9 8 10 10 8 10 12 11 13 8 5 11 11 8 6 7 6 5 8 2 8 3 0 3 9 15 15 10 11 11 10 10
6 4 6 8 14 2 2 7 7 13 20 17 7 6 9 11 9 9 12 14 15 16 15 9 6 13 11 8 8 7 4 5 4 3 3 5 8 6 16 16 12 12 14 8 15
2 3 5 7 5 1 4 5 13 17 16 12 7 10 12 13 8 6 8 9 12 12 10 12 6 12 3 3 8 3 3 3 1 1 4 5 4 7 9 11 9 9 10 9 15
6 3 5 5 2 3 6 6 10 18 18 9 2 5 10 15 13 11 14 3 7 7 7 7 5 5 9 8 6 7 7 8 5 9 3 6 5 8 6 8 15 12 11 7 9
6 4 4 5 3 5 9 13 15 15 8 8 7 8 9 11 9 9 12 12 11 2 4 2 3 3 9 4 2 2 6 4 3 1 5 6 4 3 6 11 12 14 10 9 8
4 4 3 3 3 12 11 8 13 17 16 3 7 10 11 6 9 8 9 11 11 5 2 5 2 5 6 5 2 3 11 10 5 4 1 1 4 5 7 8 8 10 10 9 9
2 4 6 5 8 16 13 12 15 15 17 17 5 6 9 8 9 9 10 9 13 5 4 3 2 3 5 3 4 3 10 14 5 9 2 8 12 9 9 9 5 9 10 10 9
4 4 6 11 10 13 11 9 14 14 9 11 12 13 8 6 5 8 11 4 3 8 9 4 4 3 6 7 6 6 5 10 10 12 10 13 12 8 15 12 12 10 10 9 9
6 9 5 8 9 10 8 17 18 14 10 16 16 13 12 12 16 7 8 7 6 5 5 5 3 5 4 5 4 4 4 6 5 16 18 17 9 15 13 17 15 12 11 10 9
Wind_Direction
354 350 344 337 327 323 314 306 300 298 300 306 313 317 321 323 312 205 245 233 193 196 166 253 218 246 256 30 47 297 132 136 162 237 245 104 82 87 122 138 152 113 132 137 144
0 352 344 340 331 324 317 311 301 298 301 306 315 321 323 329 287 252 243 210 156 152 207 232 249 261 95 81 74 352 80 185 147 212 242 308 274 141 111 100 104 119 126 142 146
1 355 348 342 335 326 320 312 305 301 302 308 313 317 320 319 280 243 214 186 163 170 260 279 278 308 85 25 46 294 249 199 195 222 265 326 328 111 124 117 128 135 144 144 147
360 356 350 344 336 328 321 313 307 305 303 305 308 311 318 268 242 82 118 149 164 192 243 265 275 127 138 19 99 70 264 167 347 278 242 272 289 123 126 128 131 138 149 146 157
355 354 350 344 338 329 320 313 305 301 303 303 304 313 294 224 253 147 143 153 163 161 231 256 271 96 59 29 338 268 208 88 45 322 271 297 0 354 131 135 136 150 149 158 146
345 345 347 343 337 330 321 313 304 299 297 298 297 309 240 251 137 154 164 165 203 183 229 252 261 119 95 35 339 29 57 68 79 117 95 73 343 333 144 134 141 164 135 134 137
343 342 341 341 335 330 324 314 303 293 287 281 278 269 260 246 142 162 186 185 200 209 226 253 285 84 117 140 287 333 29 15 8 46 47 31 347 319 297 139 151 144 145 138 135
341 339 338 337 335 332 325 312 300 286 269 248 250 263 252 238 242 180 197 201 208 220 249 279 64 76 109 200 14 338 11 293 165 160 155 175 222 295 294 29 222 145 144 144 161
337 336 334 333 332 332 324 313 298 278 210 179 208 230 267 306 206 239 188 205 210 223 247 260 318 115 149 105 185 223 197 267 155 187 166 197 216 235 270 310 143 259 132 142 144
335 332 330 330 332 332 319 291 283 145 203 197 259 288 251 235 202 216 195 221 226 206 233 240 207 97 209 116 239 240 270 264 287 190 192 190 237 261 234 248 168 180 133 153 151
333 330 327 326 325 330 333 220 245 245 240 203 184 230 273 221 209 189 175 208 239 223 228 243 186 188 204 191 155 172 41 306 284 163 168 200 231 217 219 172 166 149 202 168 174
331 328 325 323 320 322 277 240 245 309 267 223 242 232 254 149 161 203 172 189 222 219 227 272 239 235 196 152 163 178 188 236 265 168 88 18 333 319 310 246 196 168 148 201 124
329 327 324 321 316 275 218 233 285 294 289 282 229 232 238 153 216 207 169 215 219 228 242 226 254 220 180 167 167 193 216 227 127 115 105 145 307 281 233 303 284 188 156 166 181
326 324 326 326 320 312 230 237 239 258 294 268 173 230 198 152 225 211 171 209 237 227 228 247 263 272 259 182 182 196 226 216 145 150 185 215 216 270 198 245 230 178 165 154 175
324 322 321 313 306 272 291 297 224 226 293 125 163 183 157 171 219 188 168 220 255 267 239 259 276 262 257 277 263 255 199 200 169 168 131 213 131 255 160 216 184 218 180 185 181
320 320 325 117 204 247 288 294 60 300 242 175 144 153 154 208 248 163 171 182 250 271 290 277 278 283 249 253 252 282 325 286 251 129 152 180 162 199 190 190 218 192 199 189 183
320 313 289 290 231 322 280 319 183 236 319 151 164 169 193 197 247 163 175 189 196 272 252 266 272 265 275 299 263 206 265 300 56 340 284 200 79 255 199 195 213 211 206 198 190
323 312 207 213 243 300 305 354 243 253 246 229 175 176 185 202 218 184 163 200 213 230 275 262 273 214 212 207 224 250 201 194 254 192 202 349 172 224 186 198 216 208 204 207 170
319 308 200 243 219 254 293 229 225 236 273 356 345 180 193 207 213 186 182 195 214 204 206 259 285 295 202 183 183 258 274 232 282 262 152 74 5 125 174 201 213 197 190 212 160
320 279 249 196 186 198 216 249 270 302 310 317 310 323 316 212 213 219 194 208 220 213 206 248 283 288 181 170 214 183 240 355 350 285 72 24 327 183 171 200 202 211 206 150 160
250 267 138 142 143 188 225 249 272 270 270 280 292 314 304 309 299 259 229 235 217 229 201 217 180 284 306 184 195 272 268 283 211 149 155 136 293 289 182 178 152 134 107 97 123
325 298 147 157 162 213 227 235 255 274 284 303 157 262 292 297 307 311 320 279 245 257 184 213 161 243 223 244 242 205 222 190 146 277 167 120 240 242 188 184 120 106 96 90 83
315 272 218 145 247 256 276 296 284 272 278 315 313 290 250 273 297 302 307 313 330 10 310 259 232 255 323 336 307 21 303 330 293 166 191 134 216 139 112 88 108 120 124 130 124
294 314 354 323 303 358 338 328 339 331 330 271 281 305 310 304 278 276 288 297 307 13 12 100 214 174 215 236 134 31 307 315 105 317 14 293 87 39 83 105 131 144 145 146 143
285 354 25 327 334 317 304 312 311 310 314 316 285 249 287 300 313 313 306 299 296 259 198 108 217 279 285 194 126 74 211 283 343 290 157 221 162 188 160 162 203 155 145 153 150
20 352 347 299 300 321 311 293 271 284 281 299 313 332 273 265 255 307 306 24 332 346 352 322 243 250 288 299 200 133 261 276 286 299 333 202 193 168 164 174 218 156 145 156 160
351 339 303 291 301 304 315 333 333 346 340 335 338 337 327 4 348 333 319 314 315 340 323 355 51 22 270 303 130 106 208 211 317 313 291 278 180 166 175 183 209 155 154 152 147